Regional Weather Roundup
Issued by NWS Little Rock, AR

Home | Current Version | Previous Version | Text Only | Print | Product List | Glossary Off
Versions: 1 2 3 4 5 6 7 8 9 10 11 12 13 14 15 16 17 18 19 20 21 22 23 24 25 26 27 28 29 30 31 32 33 34 35 36 37 38 39 40 41 42 43 44 45 46 47 48 49 50

000
ASUS44 KLZK 211605
RWRLZK

WEATHER ROUNDUP FOR ARKANSAS
NATIONAL WEATHER SERVICE LITTLE ROCK AR
1000 AM CST SUN DEC 21 2014

NOTE: "FAIR" INDICATES FEW OR NO CLOUDS BELOW 12,000 FEET WITH NO
SIGNIFICANT WEATHER AND/OR OBSTRUCTIONS TO VISIBILITY.

ARZ001-003-010-029-211700-
NORTHWEST ARKANSAS

CITY           SKY/WX    TMP DP  RH WIND       PRES   REMARKS
FAYETTEVILLE   CLOUDY    42  39  89 S9        30.10S
FORT SMITH     CLOUDY    45  39  79 E6        30.13S
HARRISON       CLOUDY    39  37  92 S12       30.13R
BENTONVILLE    CLOUDY    43  37  81 S7        30.09S
ROGERS         CLOUDY    42  40  92 SE10      30.09S
SILOAM SPGS    CLOUDY    43  36  75 S10       30.10S
HIGHFILL       CLOUDY    43  40  89 S10       30.08S
SPRINGDALE     CLOUDY    43  39  87 SE7       30.11S
$$

ARZ004-005-016-211700-
NORTH CENTRAL ARKANSAS

CITY           SKY/WX    TMP DP  RH WIND       PRES   REMARKS
BATESVILLE     CLOUDY    43  32  65 E8        30.20S
FLIPPIN        CLOUDY    39  34  81 SE3       30.16R
MTN HOME       CLOUDY    39  34  82 SE6       30.15S
$$

ARZ040-041-211700-
WEST CENTRAL ARKANSAS

CITY           SKY/WX    TMP DP  RH WIND       PRES   REMARKS
MENA           CLOUDY    45  39  81 E6        30.12F
MOUNT IDA      CLOUDY    42  38  85 VRB5      30.12F
$$

ARZ009-017-025-026-028-211700-
NORTHEAST ARKANSAS

CITY           SKY/WX    TMP DP  RH WIND       PRES   REMARKS
CORNING        FAIR      41  32  70 E9        30.22R
JONESBORO      CLOUDY    40  34  79 E8        30.21R
NEWPORT        CLOUDY    43  34  70 SE5       30.22R
WALNUT RIDGE   CLOUDY    43  30  61 SE6       30.21S
BLYTHEVILLE    MOSUNNY   40  33  76 SE5       30.23S
$$

ARZ022-023-033-042-044-211700-
CENTRAL ARKANSAS

CITY           SKY/WX    TMP DP  RH WIND       PRES   REMARKS
LITTLE ROCK    MOSUNNY   44  34  67 E3        30.19F
N LITTLE ROCK  MOSUNNY   42  37  82 E5        30.19F
JACKSONVILLE   PTSUNNY   43  35  75 E3        30.18F
SEARCY         CLOUDY    44  35  70 CALM      30.21F
HOT SPRINGS    CLOUDY    41  36  82 SE6       30.17F
RUSSELLVILLE   CLOUDY    42  34  73 E7        30.16F
CLINTON        CLOUDY    43  34  70 E5        30.20S HAZE
$$

ARZ036-211700-
EAST ARKANSAS

CITY           SKY/WX    TMP DP  RH WIND       PRES   REMARKS
WEST MEMPHIS   MOSUNNY   43  34  70 SE5       30.20F
$$

ARZ050-053-066-070-073-211700-
SOUTHWEST ARKANSAS

CITY           SKY/WX    TMP DP  RH WIND       PRES   REMARKS
ARKADELPHIA    PTSUNNY   42  41  97 VRB3      30.19F
CAMDEN         MOSUNNY   43  37  81 MISG      30.19R HAZE
TEXARKANA      CLOUDY    41  38  89 E5        30.15S
EL DORADO      MOSUNNY   44  38  79 CALM      30.18R
DE QUEEN       CLOUDY    44  38  79 E6        30.14S HAZE
$$

ARZ056-057-069-211700-
SOUTHEAST ARKANSAS

CITY           SKY/WX    TMP DP  RH WIND       PRES   REMARKS
PINE BLUFF     SUNNY     43  36  76 E7        30.18F
STUTTGART      MOSUNNY   43  36  75 E7        30.19F
MONTICELLO     PTSUNNY   45  36  70 E6        30.18S

$$





USA.gov is the U.S. government's official web portal to all federal, state and local government web resources and services.